Chelyabinsk, Russia

1:04 PM +05 on March 27, 2017 (GMT +0500)
Balandino

Weather History for USCC - February, 2013

Change the Weather History Date:

Friday, February 15, 2013

  Actual Average Record
Temperature  
Mean Temperature 14 °F -  
Max Temperature 24 °F - - ()
Min Temperature 5 °F - - ()
Degree Days  
Heating Degree Days 50    
Moisture  
Dew Point 12 °F    
Average Humidity 88    
Maximum Humidity 100    
Minimum Humidity 68    
Precipitation  
Precipitation 0.00 in - - ()
Sea Level Pressure  
Sea Level Pressure 30.54 in    
Wind  
Wind Speed 5 mph ()    
Max Wind Speed 9 mph    
Max Gust Speed -    
Visibility 3.0 miles    
Events Fog    
T = Trace of Precipitation, MM = Missing Value Source: Averaged Metar Reports

Daily Weather History Graph

Daily Weather History Graph

Search for Another Location

Airport or City:

Trip Planner

Search our weather history database for the weather conditions in past years. The results will help you decide how hot, cold, wet, or windy it might be!

Date:

Astronomy

Feb. 15, 2013 Rise Set
Actual Time 9:17 AM +06 6:59 PM +06
Civil Twilight 8:39 AM +06 7:37 PM +06
Nautical Twilight 7:56 AM +06 8:20 PM +06
Astronomical Twilight 7:14 AM +06 9:02 PM +06
Moon 10:36 AM +06 (2/15) 12:34 AM +06 (2/15)
Length of Visible Light 10h 58m
Length of Day
9h 42m
Waxing Crescent, 26% of the Moon is Illuminated
Feb 15
Waxing Crescent
Feb 18
First Quarter
Feb 26
Full
Mar 5
Last Quarter
Mar 12
New

Hourly Weather History & Observations

Time (+06) Temp. Windchill Dew Point Humidity Pressure Visibility Wind Dir Wind Speed Gust Speed Precip Events Conditions
12:00 AM 17.6 °F 6.6 °F 14.0 °F 86% 30.57 in - WNW 8.9 mph - N/A   Clear
12:30 AM 12.2 °F -0.0 °F 10.4 °F 92% 30.57 in - WNW 8.9 mph - N/A   Clear
1:00 AM 12.2 °F -0.0 °F 10.4 °F 92% 30.60 in - West 8.9 mph - N/A   Clear
1:30 AM 12.2 °F 1.9 °F 12.2 °F 100% 30.57 in - West 6.7 mph - N/A   Clear
2:00 AM 10.4 °F -0.2 °F 8.6 °F 92% 30.57 in - West 6.7 mph - N/A   Clear
2:30 AM 12.2 °F -0.0 °F 10.4 °F 92% 30.57 in - West 8.9 mph - N/A   Clear
3:00 AM 10.4 °F -0.2 °F 8.6 °F 92% 30.60 in - West 6.7 mph - N/A   Clear
3:30 AM 14.0 °F 4.1 °F 12.2 °F 93% 30.60 in - WNW 6.7 mph - N/A   Clear
4:00 AM 14.0 °F 4.1 °F 14.0 °F 100% 30.60 in - WNW 6.7 mph - N/A   Clear
4:30 AM 10.4 °F -0.2 °F 8.6 °F 92% 30.60 in - West 6.7 mph - N/A   Clear
5:00 AM 8.6 °F -4.4 °F 8.6 °F 100% 30.60 in - West 8.9 mph - N/A   Clear
5:30 AM 10.4 °F -0.2 °F 8.6 °F 92% 30.57 in - West 6.7 mph - N/A   Clear
6:00 AM 8.6 °F -2.4 °F 6.8 °F 92% 30.57 in - West 6.7 mph - N/A   Clear
6:30 AM 10.4 °F -0.2 °F 8.6 °F 92% 30.57 in - West 6.7 mph - N/A   Clear
7:00 AM 10.4 °F -2.2 °F 10.4 °F 100% 30.57 in 3.1 mi West 8.9 mph - N/A   Partly Cloudy
7:30 AM 10.4 °F 2.4 °F 8.6 °F 92% 30.57 in 3.1 mi West 4.5 mph - N/A   Partly Cloudy
8:00 AM 8.6 °F - 6.8 °F 92% 30.57 in 3.1 mi South 2.2 mph - N/A   Partly Cloudy
8:30 AM 8.6 °F - 6.8 °F 92% 30.57 in 3.1 mi Calm Calm - N/A   Partly Cloudy
9:00 AM 8.6 °F - 6.8 °F 92% 30.57 in 3.1 mi SSW 2.2 mph - N/A   Partly Cloudy
9:30 AM 5.0 °F - 3.2 °F 92% 30.57 in 3.1 mi Calm Calm - N/A   Scattered Clouds
10:00 AM 10.4 °F 2.4 °F 8.6 °F 92% 30.57 in 0.1 mi South 4.5 mph - N/A Fog Light Freezing Fog
10:30 AM 8.6 °F - 6.8 °F 92% 30.57 in 0.1 mi Calm Calm - N/A Fog Light Freezing Fog
11:00 AM 12.2 °F 4.5 °F 10.4 °F 92% 30.54 in 1.4 mi South 4.5 mph - N/A   Mostly Cloudy
11:30 AM 15.8 °F 6.2 °F 15.8 °F 100% 30.54 in 1.9 mi SSW 6.7 mph - N/A   Mostly Cloudy
12:00 PM 14.0 °F 6.6 °F 12.2 °F 93% 30.54 in 1.3 mi SSW 4.5 mph - N/A   Scattered Clouds
12:30 PM 10.4 °F - 8.6 °F 92% 30.54 in 1.6 mi South 2.2 mph - N/A   Scattered Clouds
1:00 PM 10.4 °F 2.4 °F 8.6 °F 92% 30.54 in 1.6 mi SSE 4.5 mph - N/A   Scattered Clouds
1:30 PM 21.2 °F 12.7 °F 19.4 °F 93% 30.54 in 3.1 mi SSW 6.7 mph - N/A   Scattered Clouds
2:00 PM 17.6 °F - 14.0 °F 86% 30.54 in 4.3 mi North 2.2 mph - N/A   Partly Cloudy
2:30 PM 19.4 °F - 15.8 °F 86% 30.51 in 4.3 mi Calm Calm - N/A   Partly Cloudy
3:00 PM 19.4 °F - 14.0 °F 80% 30.51 in 4.3 mi East 2.2 mph - N/A   Partly Cloudy
3:30 PM 23.0 °F - 14.0 °F 68% 30.51 in 4.3 mi East 2.2 mph - N/A   Partly Cloudy
4:00 PM 24.8 °F - 15.8 °F 69% 30.51 in 4.3 mi East 2.2 mph - N/A   Partly Cloudy
4:30 PM 24.8 °F - 15.8 °F 69% 30.51 in 4.3 mi East 2.2 mph - N/A   Scattered Clouds
5:00 PM 23.0 °F 17.1 °F 15.8 °F 74% 30.51 in 4.3 mi East 4.5 mph - N/A   Scattered Clouds
5:30 PM 23.0 °F - 15.8 °F 74% 30.51 in 4.3 mi East 2.2 mph - N/A   Scattered Clouds
6:00 PM 23.0 °F - 15.8 °F 74% 30.51 in 4.3 mi East 2.2 mph - N/A   Scattered Clouds
6:30 PM 21.2 °F - 14.0 °F 74% 30.51 in 3.1 mi East 2.2 mph - N/A   Smoke
7:00 PM 19.4 °F - 15.8 °F 86% 30.51 in 3.1 mi Calm Calm - N/A   Scattered Clouds
7:30 PM 15.8 °F - 14.0 °F 93% 30.51 in 3.1 mi Calm Calm - N/A   Mostly Cloudy
8:00 PM 17.6 °F - 15.8 °F 93% 30.51 in 3.1 mi West 2.2 mph - N/A   Mostly Cloudy
8:30 PM 15.8 °F - 14.0 °F 93% 30.51 in 3.1 mi WNW 2.2 mph - N/A   Mostly Cloudy
9:00 PM 17.6 °F 10.8 °F 15.8 °F 93% 30.51 in 3.1 mi West 4.5 mph - N/A   Mostly Cloudy
9:30 PM 17.6 °F 10.8 °F 15.8 °F 93% 30.51 in 3.1 mi West 4.5 mph - N/A   Mostly Cloudy
10:00 PM 15.8 °F 8.7 °F 10.4 °F 79% 30.48 in 3.1 mi WNW 4.5 mph - N/A   Mostly Cloudy
10:30 PM 14.0 °F 4.1 °F 10.4 °F 86% 30.48 in 3.1 mi West 6.7 mph - N/A   Mostly Cloudy
11:00 PM 12.2 °F -0.0 °F 6.8 °F 79% 30.48 in 3.1 mi West 8.9 mph - N/A   Mostly Cloudy
11:30 PM 14.0 °F 4.1 °F 8.6 °F 79% 30.48 in 3.1 mi West 6.7 mph - N/A   Mostly Cloudy